Regional Weather Roundup
Issued by NWS New Orleans/Baton Rouge, LA

Home | Current Version | Previous Version | Text Only | Print | Product List | Glossary Off
Versions: 1 2 3 4 5 6 7 8 9 10 11 12 13 14 15 16 17 18 19 20 21 22 23 24 25 26 27 28 29 30 31 32 33 34 35 36 37 38 39 40 41 42 43 44 45 46 47 48 49 50

772
ASUS44 KLIX 310410
RWRLIX
NEW ORLEANS REGIONAL WEATHER ROUNDUP
NATIONAL WEATHER SERVICE NEW ORLEANS LA
1100 PM CDT WED JUL 30 2014

NOTE: "FAIR" INDICATES FEW OR NO CLOUDS BELOW 12,000 FEET WITH NO
      SIGNIFICANT WEATHER AND/OR OBSTRUCTIONS TO VISIBILITY.
      SKY/WX - SKY CONDITION AND SIGNIFICANT WEATHER.
      TMP - AIR TEMPERATURE.     DP    - DEWPOINT TEMPERATURE.
      RH  - RELATIVE HUMIDITY.   PRES  - PRESSURE.
      HI  - HEAT INDEX.          WCI   - WIND CHILL INDEX.

*  THESE STATIONS ARE NOT NWS OR FAA STATIONS AND ARE NOT UNDER
   NWS QUALITY CONTROL.

LAZ038-040-048-061>063-065>067-069-310500-
SOUTHEAST LOUISIANA

CITY           SKY/WX    TMP DP  RH WIND       PRES   REMARKS
N.O. AUDUBON     N/A     78  62  56 MISG        N/A
N.O. INTL ARPT PTCLDY    78  60  53 E7        30.02S
N.O. LAKEFRONT CLEAR     83  61  47 NE12      30.03S
N.O. DOWNTOWN*   N/A     82  59  44 NE6       30.03S
SLIDELL        CLEAR     69  66  90 CALM      30.02S
BATON ROUGE    CLEAR     71  66  84 NE5       30.03R
BOOTHVILLE     CLEAR     78  65  63 E3        30.03S
BELLE CHASSE   PTCLDY    70  65  84 CALM      30.02R
BOGALUSA*        N/A     70  65  83 CALM      30.05S
GALLIANO*      NOT AVBL
NEW ROADS*       N/A     72  67  85 MISG      30.03S
GONZALES*        N/A     70  70  98 CALM      30.03R
HAMMOND*       CLEAR     70  64  83 CALM      30.05S
HOUMA*         CLEAR     73  64  73 CALM      30.02S
PORT FOURCHON* CLEAR     81  68  65 E6        30.04R

$$

MSZ070-080>082-310500-
SOUTHERN MISSISSIPPI

CITY           SKY/WX    TMP DP  RH WIND       PRES   REMARKS
MCCOMB         CLEAR     74  61  63 NE3       30.05R
GULFPORT       CLEAR     78  60  53 NE5       30.02S
BILOXI         CLEAR     75  61  60 E3        30.03S
PASCAGOULA     CLEAR     66  63  90 CALM      30.03S

$$

COASTAL OBSERVATIONS
LAKE AND NEARSHORE STATIONS

STATION/POSITION TIME  TEMP    WIND        PRES    WAVE
                       AIR SEA DIR/SP/G            HT/PER
                 (UTC) (F)     (DEG/KT/KT) (MB)    (FT/S)
PASCAGOULA       0400   77      30/  5/  8 1016.2
WAVELAND YACHT   0400   79      80/  9/ 11 1016.2
GRAND ISLE       0400   81 87   90/  5/  6 1017.3
SOUTHWEST PASS   0400   81 85   40/  5/  5 1017.1
NEW CANAL        0400   83 84   50/ 10/ 12 1017.0
SHELL BEACH      0400   79 82  170/  4/  5 1016.5

OFFSHORE STATIONS

STATION/POSITION TIME  TEMP    WIND        PRES    WAVE
                       AIR SEA DIR/SP/G            HT/PER
                 (UTC) (F)     (DEG/KT/KT) (MB)    (FT/S)
64 S DAUPHIN ISL 0348   81 85  360/  6/  8 1016.9

$$




USA.gov is the U.S. government's official web portal to all federal, state and local government web resources and services.